This is the latest recevied weather packets stored in our database for station/object KC3HIX. If no packets are shown the sender has not sent any weather packets the latest 10 day(s).
| Time | Temp. | Humidity | Pressure | Rain* | Wind** | Luminosity | Snow |
|---|---|---|---|---|---|---|---|
| 1777777205 | 8.33° C | 67% | 1013.7 hPa | 0 mm | - | - | - |
| 1777772405 | 8.89° C | 63% | 1013.7 hPa | 0 mm | - | - | - |
| 1777770905 | 8.89° C | 63% | 1013.4 hPa | 0 mm | - | - | - |
| 1777769105 | 9.44° C | 64% | 1013.4 hPa | 0 mm | - | - | - |
| 1777768505 | 9.44° C | 61% | 1013.4 hPa | 0 mm | - | - | - |
| 1777767005 | 10° C | 62% | 1013 hPa | 0 mm | - | - | - |
| 1777766104 | 10° C | 58% | 1013 hPa | 0 mm | - | - | - |
| 1777765805 | 10° C | 58% | 1013 hPa | 0 mm | - | - | - |
| 1777764604 | 10.56° C | 55% | 1012.7 hPa | 0 mm | - | - | - |
| 1777764304 | 10.56° C | 54% | 1013 hPa | 0 mm | - | - | - |
| 1777764004 | 10.56° C | 53% | 1012.7 hPa | 0 mm | - | - | - |
| 1777763705 | 11.11° C | 53% | 1012.7 hPa | 0 mm | - | - | - |
| 1777761904 | 12.22° C | 49% | 1012.7 hPa | 0 mm | - | - | - |
| 1777760404 | 12.78° C | 47% | 1012.7 hPa | 0 mm | - | - | - |
| 1777759825 | 13.33° C | 46% | 1012.3 hPa | 0 mm | - | - | - |
| 1777757104 | 13.89° C | 47% | 1012.3 hPa | 0 mm | - | - | - |
| 1777756804 | 13.89° C | 43% | 1012 hPa | 0 mm | - | - | - |
| 1777755604 | 13.89° C | 44% | 1012 hPa | 0 mm | - | - | - |
| 1777749904 | 13.89° C | 41% | 1013 hPa | 0 mm | - | - | - |
| 1777749004 | 12.78° C | 45% | 1013 hPa | 0 mm | - | - | - |
| 1777748403 | 12.78° C | 44% | 1013.4 hPa | 0 mm | - | - | - |
| 1777747203 | 13.33° C | 43% | 1013.4 hPa | 0 mm | - | - | - |
| 1777746903 | 13.33° C | 42% | 1013.4 hPa | 0 mm | - | - | - |
| 1777746003 | 14.44° C | 38% | 1013.7 hPa | 0 mm | - | - | - |
| 1777745703 | 14.44° C | 40% | 1013.4 hPa | 0 mm | - | - | - |
* Rain latest hour (hover to see other rain measurements)
** Current wind speed in m/s (hover to see current wind gust speed)